McGuire AFB, NJ

12:02 AM EDT on April 30, 2017 (GMT -0400)
McGuire Air Force Base

Weather History for KWRI - October, 2012

Change the Weather History Date:

Sunday, October 7, 2012

  Actual Average Record
Temperature  
Mean Temperature 47 °F -  
Max Temperature 52 °F 68 °F 86 °F (2007)
Min Temperature 42 °F 46 °F 35 °F (1999)
Degree Days  
Heating Degree Days 18    
Moisture  
Dew Point 44 °F    
Average Humidity 84    
Maximum Humidity 94    
Minimum Humidity 67    
Precipitation  
Precipitation 0.08 in - - ()
Sea Level Pressure  
Sea Level Pressure 30.07 in    
Wind  
Wind Speed 3 mph (NW)    
Max Wind Speed 7 mph    
Max Gust Speed -    
Visibility 9 miles    
Events Rain    
Averages and records for this station are not official NWS values.
T = Trace of Precipitation, MM = Missing Value Source: NWS Daily Summary

Daily Weather History Graph

Daily Weather History Graph

Search for Another Location

Airport or City:

Trip Planner

Search our weather history database for the weather conditions in past years. The results will help you decide how hot, cold, wet, or windy it might be!

Date:

Astronomy

Oct. 07, 2012 Rise Set
Actual Time 7:01 AM EDT 6:30 PM EDT
Civil Twilight 6:33 AM EDT 6:57 PM EDT
Nautical Twilight 6:02 AM EDT 7:28 PM EDT
Astronomical Twilight 5:31 AM EDT 8:00 PM EDT
Moon 11:39 PM EDT (10/7) 1:36 PM EDT (10/7)
Length of Visible Light 12h 23m
Length of Day
11h 29m
Waning Gibbous, 56% of the Moon is Illuminated
Oct 7
Waning Gibbous
Oct 8
Last Quarter
Oct 15
New
Oct 21
First Quarter
Oct 29
Full

Hourly Weather History & Observations

Time (EDT) Temp. Windchill Dew Point Humidity Pressure Visibility Wind Dir Wind Speed Gust Speed Precip Events Conditions
12:55 AM 50.0 °F - 44.6 °F 82% 30.01 in 10.0 mi Calm Calm - N/A   Clear
1:55 AM 48.4 °F - 43.3 °F 83% 30.02 in 10.0 mi NW 5.8 mph - N/A   Clear
2:55 AM 48.2 °F - 42.6 °F 81% 30.02 in 10.0 mi NW 5.8 mph - N/A   Clear
3:55 AM 45.0 °F 43.5 °F 41.5 °F 88% 30.02 in 9.0 mi NNW 3.5 mph - N/A   Clear
4:43 AM 44.6 °F - 41.0 °F 87% 30.03 in 8.0 mi Calm Calm - N/A   Clear
4:52 AM 46.4 °F - 41.0 °F 81% 30.04 in 7.0 mi Calm Calm - N/A   Clear
4:55 AM 46.0 °F 44.8 °F 41.7 °F 85% 30.05 in 7.0 mi NW 3.5 mph - N/A   Clear
5:55 AM 44.8 °F - 40.5 °F 85% 30.06 in 8.0 mi Calm Calm - N/A   Clear
6:00 AM 44.6 °F - 41.0 °F 87% 30.06 in 6.0 mi Calm Calm - N/A   Clear
6:12 AM 44.6 °F - 41.0 °F 87% 30.07 in 8.0 mi Calm Calm - N/A   Clear
6:49 AM 42.8 °F - 41.0 °F 93% 30.07 in 7.0 mi Calm Calm - N/A   Clear
6:50 AM 42.8 °F - 41.0 °F 93% 30.07 in 7.0 mi Calm Calm - N/A   Clear
6:55 AM 43.5 °F 41.9 °F 40.5 °F 89% 30.07 in 5.0 mi North 3.5 mph - N/A   Clear
7:55 AM 47.5 °F - 43.2 °F 85% 30.08 in 10.0 mi Calm Calm - N/A   Overcast
8:55 AM 50.0 °F - 43.3 °F 78% 30.09 in 9.0 mi Calm Calm - N/A   Overcast
9:55 AM 51.6 °F - 42.4 °F 71% 30.10 in 8.0 mi Calm Calm - N/A   Overcast
10:55 AM 52.0 °F - 43.5 °F 73% 30.11 in 10.0 mi NW 6.9 mph - N/A   Overcast
11:39 AM 51.8 °F - 41.0 °F 67% 30.12 in 10.0 mi NW 5.8 mph - N/A Rain Light Rain
11:55 AM 51.3 °F - 41.5 °F 69% 30.12 in 10.0 mi NW 5.8 mph - 0.00 in Rain Light Rain
12:27 PM 50.0 °F - 42.8 °F 76% 30.11 in 10.0 mi NNW 5.8 mph - N/A Rain Light Rain
12:55 PM 50.4 °F - 43.7 °F 78% 30.10 in 10.0 mi NNW 3.5 mph - 0.03 in Rain Light Rain
1:27 PM 50.0 °F - 41.0 °F 71% 30.08 in 10.0 mi Calm Calm - N/A   Mostly Cloudy
1:31 PM 50.0 °F - 41.0 °F 71% 30.08 in 10.0 mi Calm Calm - N/A Rain Light Rain
1:49 PM 50.0 °F - 42.8 °F 76% 30.08 in 10.0 mi NW 3.5 mph - N/A   Overcast
1:55 PM 50.0 °F - 42.8 °F 76% 30.08 in 10.0 mi North 3.5 mph - 0.00 in   Overcast
2:55 PM 50.5 °F - 43.2 °F 76% 30.04 in 10.0 mi Calm Calm - N/A   Overcast
3:55 PM 50.5 °F - 45.9 °F 84% 30.02 in 10.0 mi Calm Calm - N/A   Overcast
4:55 PM 50.5 °F - 46.0 °F 85% 30.01 in 10.0 mi East 3.5 mph - N/A   Overcast
5:55 PM 50.4 °F - 46.6 °F 87% 30.01 in 10.0 mi Calm Calm - N/A   Overcast
6:17 PM 50.0 °F - 46.4 °F 87% 30.03 in 10.0 mi NW 3.5 mph - N/A   Overcast
6:25 PM 50.0 °F - 46.4 °F 87% 30.03 in 10.0 mi NW 3.5 mph - N/A   Overcast
6:32 PM 50.0 °F - 46.4 °F 87% 30.04 in 10.0 mi NW 3.5 mph - N/A   Overcast
6:44 PM 50.0 °F - 46.4 °F 87% 30.04 in 10.0 mi NW 5.8 mph - N/A   Overcast
6:55 PM 50.0 °F - 46.6 °F 88% 30.05 in 10.0 mi NW 4.6 mph - N/A   Overcast
7:00 PM 50.0 °F - 46.4 °F 87% 30.05 in 10.0 mi NW 4.6 mph - N/A   Overcast
7:15 PM 50.0 °F - 46.4 °F 87% 30.06 in 10.0 mi WNW 5.8 mph - N/A   Overcast
7:24 PM 50.0 °F - 46.4 °F 87% 30.08 in 10.0 mi West 6.9 mph - N/A   Overcast
7:30 PM 50.0 °F - 46.4 °F 87% 30.08 in 10.0 mi West 5.8 mph - N/A Rain Light Rain
7:40 PM 50.0 °F - 46.4 °F 87% 30.09 in 6.0 mi West 5.8 mph - N/A Rain Rain
7:43 PM 50.0 °F - 46.4 °F 87% 30.09 in 6.0 mi West 6.9 mph - N/A Rain Rain
7:55 PM 49.3 °F - 46.2 °F 89% 30.08 in 10.0 mi West 5.8 mph - 0.03 in Rain Light Rain
8:28 PM 48.2 °F - 46.4 °F 93% 30.10 in 10.0 mi West 5.8 mph - N/A   Overcast
8:52 PM 48.2 °F - 46.4 °F 93% 30.12 in 10.0 mi West 6.9 mph - N/A Rain Light Rain
8:55 PM 48.6 °F - 45.9 °F 90% 30.12 in 10.0 mi West 6.9 mph - 0.01 in Rain Light Rain
9:41 PM 48.2 °F - 46.4 °F 93% 30.12 in 10.0 mi West 3.5 mph - N/A   Mostly Cloudy
9:55 PM 48.2 °F - 45.9 °F 92% 30.11 in 10.0 mi Calm Calm - 0.01 in   Mostly Cloudy
10:55 PM 48.7 °F - 46.4 °F 92% 30.12 in 10.0 mi WNW 3.5 mph - N/A   Scattered Clouds
11:55 PM 47.1 °F - 45.5 °F 94% 30.12 in 10.0 mi West 3.5 mph - N/A   Clear